Regional Weather Roundup
Issued by NWS Kansas City/Pleasant Hill, MO

Home | Current Version | Previous Version | Graphics & Text | Print | Product List | Glossary Off
Versions: 1 2 3 4 5 6 7 8 9 10 11 12 13 14 15 16 17 18 19 20 21 22 23 24 25 26 27 28 29 30 31 32 33 34 35 36 37 38 39 40 41 42 43 44 45 46 47 48 49 50

000
ASUS43 KEAX 180011
RWREAX

WEATHER ROUNDUP FOR EASTERN KANSAS AND NORTHWEST MISSOURI
NATIONAL WEATHER SERVICE KANSAS CITY/PLEASANT HILL MO
700 PM CDT WED SEP 17 2014

KSZ040-057-103>105-MOZ028-029-037-043-180100-
...KANSAS CITY METROPOLITAN AREA...

CITY           SKY/WX    TMP DP  RH WIND       PRES   REMARKS
K.C. INTL      CLEAR     71  65  81 SE6       29.90S
6HR MIN TEMP:  71; 6HR MAX TEMP:  74;

K.C. DOWNTOWN  PTCLDY    72  66  81 E9        29.89S
6HR MIN TEMP:  70; 6HR MAX TEMP:  75;

LEES SUMMIT    PTCLDY    71  66  84 E3        29.91R
6HR MIN TEMP:  67; 6HR MAX TEMP:  74;

OLATHE - IXD   CLOUDY    71  65  81 E6        29.91R
6HR MIN TEMP:  71; 6HR MAX TEMP:  76;

OLATHE - OJC   CLOUDY    70  65  84 E6        29.90R
6HR MIN TEMP:  70; 6HR MAX TEMP:  74;

LAWRENCE       CLOUDY    72  65  78 E6        29.89S

$$

MOZ001>008-011>017-020>025-030>033-038>040-044>046-053-054-180100-
...NORTHERN AND CENTRAL MISSOURI...

CITY           SKY/WX    TMP DP  RH WIND       PRES   REMARKS
ST. JOSEPH     PTCLDY    75  66  73 SE3       29.89S
6HR MIN TEMP:  69; 6HR MAX TEMP:  79;

MOSBY          CLEAR     70  64  83 CALM      29.90S
WARRENSBURG    CLOUDY    68  64  88 NE5       29.90S
WHITEMAN AFB   CLOUDY    70  67  92 NE3       29.90S
6HR MIN TEMP:  69; 6HR MAX TEMP:  72; 6HR PCP: TRACE;

CLINTON        CLOUDY    73  70  88 CALM      29.90S
SEDALIA        CLOUDY    70  66  87 E7        29.92R
6HR MIN TEMP:  69; 6HR MAX TEMP:  74;

WARSAW         NOT AVBL
MARSHALL       CLOUDY    72  68  88 SE6       29.92S
CHILLICOTHE      N/A     72  64  76 CALM      29.92R
6HR MIN TEMP:  71; 6HR MAX TEMP:  77;

MOBERLY        CLEAR     66  59  77 E8        29.95R
KIRKSVILLE     PTCLDY    67  61  81 E5        29.94R
6HR MIN TEMP:  67; 6HR MAX TEMP:  72;


$$

MOZ041-047>049-056>058-063>065-088>090-097-180100-
...EASTERN AND SOUTHERN MISSOURI...

CITY           SKY/WX    TMP DP  RH WIND       PRES   REMARKS
ST. LOUIS INTL LGT RAIN  64  56  75 E8        29.96R
6HR MIN TEMP:  62; 6HR MAX TEMP:  67; 6HR PCP: TRACE;

SPIRIT OF STL  CLOUDY    63  61  94 E3        29.95R FOG
COLUMBIA       CLOUDY    63  61  93 NE6       29.94R FOG
JEFFERSON CITY CLOUDY    66  63  90 E5        29.92S
MEXICO         CLOUDY   N/A N/A N/A E5        29.95R FOG
HANNIBAL       CLOUDY    64  57  77 SE3       29.97R
ROLLA          CLOUDY    64  62  93 E7        29.91F FOG
LEBANON        CLOUDY    72  66  83 E3        29.91F
OSAGE BEACH    CLOUDY    72  64  78 E5        29.90S
SPRINGFIELD    CLEAR     68  64  87 S5        29.89F
BRANSON        MOCLDY    66  64  94 CALM      29.92F
NEVADA         CLEAR     72  68  88 NE5       29.89S
JOPLIN         PTCLDY    72  64  76 SE6       29.87S
WEST PLAINS    MOCLDY    65  61  87 CALM      29.93F

$$

IAZ060-094-KSZ022-034>040-054-083-096-NEZ052-066-093-180100-
...KANSAS...SOUTHEAST NEBRASKA AND IOWA...

CITY           SKY/WX    TMP DP  RH WIND       PRES   REMARKS
TOPEKA         CLEAR     73  68  84 E6        29.89R
6HR MIN TEMP:  73; 6HR MAX TEMP:  77;

MANHATTAN      CLEAR     75  67  76 E8        29.87S
EMPORIA        CLEAR     76  67  73 NE12      29.86F
CHANUTE        CLEAR     82  73  74 E8        29.85R
WICHITA        PTCLDY    92  59  33 SE9       29.79F HX  91
OMAHA          PTCLDY    77  61  57 E6        29.90R
LINCOLN        CLEAR     76  61  59 E7        29.91R
FALLS CITY     CLEAR     74  65  73 S5        29.89S
LAMONI         PTCLDY    69  60  73 E5        29.92S
DES MOINES     PTCLDY    72  56  57 E5        29.93S

$$




USA.gov is the U.S. government's official web portal to all federal, state and local government web resources and services.